Temperature
17 16 14 14 14 14 13 13 13 13 13 13 13 13 12 12 12 12 12 12 12 12 12 12 13 12 12 12 12 12 13 13 13 13 13 13 12 12 12 13 13 13 13
19 17 15 14 14 14 13 13 13 13 13 13 13 12 12 12 12 12 12 12 12 12 12 12 12 11 11 11 12 12 12 13 13 13 13 12 12 12 12 12 12 12 12
19 17 15 14 14 13 13 13 13 13 13 13 13 12 12 12 12 12 12 12 12 12 11 11 11 11 11 11 11 12 12 13 13 13 12 12 11 11 11 11 11 11 11
18 17 15 14 14 14 13 13 13 13 13 12 12 12 12 12 12 11 11 11 11 11 12 12 11 11 11 11 11 11 12 12 12 12 12 11 10 10 10 10 10 10 10
18 17 15 14 14 14 13 13 13 12 12 12 12 12 12 12 11 11 11 11 11 11 12 12 11 11 11 11 11 12 12 12 12 11 11 11 10 9 9 9 9 9 10
18 16 15 14 14 14 13 13 13 12 12 12 12 12 11 11 11 11 11 11 12 11 11 11 11 11 11 11 11 11 11 11 11 11 11 10 10 9 9 9 9 9 9
18 16 15 15 14 14 13 13 13 12 12 12 12 12 11 11 11 12 12 12 11 11 11 11 11 11 11 11 11 11 11 11 10 10 10 10 9 9 9 9 9 9 9
18 16 15 14 14 14 13 13 13 12 12 12 12 11 11 11 12 12 12 11 11 11 11 11 11 11 10 10 10 10 10 10 10 10 9 9 9 8 8 9 9 9 9
17 16 15 14 14 14 13 13 13 13 12 12 12 12 12 12 11 11 11 11 11 11 11 11 10 10 10 10 10 10 10 9 9 9 9 9 9 8 8 8 8 8 9
16 16 15 15 14 14 13 13 13 13 12 12 12 12 12 12 11 11 11 11 11 11 10 10 10 10 10 9 9 9 9 9 9 9 9 9 8 8 8 8 8 8 8
16 16 15 15 14 14 13 13 13 12 12 12 12 12 12 12 11 11 11 11 10 10 10 10 10 10 9 9 9 9 9 9 9 8 8 8 8 8 8 8 8 8 8
17 16 16 15 15 14 14 13 13 12 12 12 12 12 12 11 11 11 11 11 10 10 10 10 9 9 9 9 9 9 9 9 8 8 8 8 8 8 8 8 8 8 8
19 17 17 16 15 14 14 13 13 13 12 12 12 12 11 11 11 11 10 10 10 10 9 9 9 9 9 9 9 9 9 8 8 8 8 8 8 7 7 7 7 7 7
19 18 17 16 15 15 14 14 14 13 13 12 12 12 11 11 11 11 10 10 10 9 9 9 9 9 9 9 9 9 9 8 8 8 8 8 8 7 7 7 7 7 7
19 18 18 17 16 15 15 14 14 13 13 13 12 12 11 11 11 10 10 10 9 9 9 9 9 9 9 9 9 9 9 9 8 8 8 8 8 8 7 7 7 6 6
19 19 18 17 17 16 15 15 14 14 13 13 12 12 11 11 11 10 10 10 9 9 9 9 9 9 9 9 9 9 9 9 9 8 8 8 8 8 7 7 6 6 6
20 19 18 18 17 16 15 15 15 14 13 13 13 12 11 11 10 10 10 10 9 9 9 9 9 9 9 9 9 9 9 9 9 8 8 8 8 8 7 7 7 6 6
20 19 19 18 17 16 16 15 15 14 14 13 13 12 11 11 10 10 10 10 9 9 9 9 9 9 9 9 9 9 9 9 8 8 8 8 8 7 7 7 7 7 6
20 19 19 18 18 17 16 15 14 14 14 13 13 12 12 11 11 10 10 9 9 9 9 9 9 9 9 9 9 9 9 9 8 8 8 8 7 7 7 7 7 7 7
19 19 19 18 18 17 16 14 13 13 13 13 13 12 12 11 11 10 10 9 9 9 9 9 9 9 9 9 9 9 9 8 8 8 8 8 7 7 7 7 7 7 6
19 19 18 18 18 17 15 15 14 14 14 13 13 12 12 11 11 10 10 10 9 9 9 9 9 9 9 8 8 9 9 8 8 8 8 7 7 7 7 7 6 6 6
19 19 19 19 18 17 17 17 16 15 14 13 13 12 12 11 11 10 10 10 9 9 9 9 9 9 9 8 8 8 8 8 8 8 8 7 7 7 7 6 6 6 6
19 19 19 19 19 18 18 16 15 13 12 12 12 12 12 11 11 10 10 10 10 9 9 9 9 9 9 9 8 8 8 8 8 8 7 7 7 7 6 6 6 6 6
20 20 19 19 19 19 18 17 16 14 14 14 14 13 12 12 11 11 10 10 10 9 9 9 9 9 9 9 8 8 8 8 8 8 7 7 7 6 6 6 6 6 5
20 20 20 19 19 19 18 17 17 16 16 15 14 13 12 11 11 11 10 10 10 10 9 9 9 9 9 9 8 8 8 8 8 7 7 7 7 6 6 6 6 5 5
20 20 20 19 19 19 18 17 17 17 16 15 14 13 12 12 11 11 10 10 10 10 9 9 9 9 9 9 8 8 8 8 8 7 7 7 7 7 6 6 5 5 5
Wind_Speed
7 12 20 21 20 19 18 17 15 14 14 14 13 13 13 13 13 14 14 15 15 15 15 15 15 16 16 17 17 17 18 18 19 19 18 18 17 17 17 17 17 16 18
11 17 21 22 21 20 19 18 16 15 14 14 13 13 13 13 13 13 14 14 14 14 14 14 14 15 15 15 16 16 16 17 17 17 17 16 16 16 16 16 16 15 17
14 19 21 23 22 21 20 19 17 15 15 14 13 13 13 13 13 13 13 14 14 14 14 14 13 14 14 14 15 15 16 16 16 16 16 16 13 15 15 15 15 15 15
16 18 20 23 23 22 21 19 18 16 15 15 14 13 13 13 13 13 13 13 14 14 14 14 13 13 13 13 14 14 15 15 15 14 15 15 12 13 14 14 14 14 14
14 16 21 25 24 23 22 20 19 17 16 15 14 13 13 13 13 13 13 13 14 14 13 13 13 13 12 13 13 14 14 14 14 14 14 14 12 12 13 13 12 12 12
12 15 21 25 24 23 22 21 19 18 16 15 14 14 13 13 13 12 13 13 13 13 12 12 12 12 12 12 12 13 12 12 12 13 12 12 11 11 11 11 11 11 11
13 14 19 24 24 23 23 22 20 19 17 16 14 14 13 13 13 12 12 12 12 12 11 11 11 11 11 11 11 11 11 10 10 10 10 10 9 10 10 10 9 9 9
13 13 18 24 24 23 23 22 21 19 18 16 15 14 13 13 13 12 12 11 11 10 10 10 10 10 10 10 10 9 9 8 7 7 7 9 8 9 9 9 9 9 9
10 10 13 19 22 23 23 22 21 20 18 17 16 15 14 13 12 12 11 10 10 9 9 9 8 8 8 8 8 8 7 7 6 5 5 7 8 9 9 9 9 9 9
9 9 9 13 17 19 20 22 21 20 19 18 16 15 14 13 12 12 10 10 9 8 8 7 7 7 7 7 7 7 7 6 5 4 4 6 7 8 8 9 8 8 8
12 9 8 9 13 16 17 20 21 20 19 18 17 16 14 11 11 11 10 9 8 7 7 6 6 6 6 6 6 7 6 5 3 2 4 5 6 7 8 8 8 8 8
18 14 10 10 11 14 15 17 17 17 17 16 16 16 14 12 11 11 9 8 7 6 5 5 5 6 6 6 6 6 5 4 2 2 3 5 6 7 8 8 8 8 8
18 16 14 12 11 12 10 12 13 14 14 15 17 17 15 13 11 10 8 6 5 5 4 4 5 6 5 5 4 4 3 3 2 2 4 5 5 6 7 8 8 9 8
15 17 15 13 12 12 11 10 11 11 12 12 15 17 14 10 8 8 6 5 4 4 4 3 3 3 3 3 3 3 3 2 2 2 3 4 4 5 6 7 8 8 8
16 17 16 16 15 13 11 10 11 10 12 14 15 17 16 11 7 7 7 6 5 5 4 3 2 2 2 3 3 2 2 2 2 2 3 4 4 4 5 6 7 8 9
17 18 17 18 17 14 13 11 10 12 13 15 15 17 18 15 11 8 6 6 6 6 5 4 3 2 2 2 2 3 3 2 2 2 2 4 5 5 5 6 7 8 8
18 17 18 18 18 17 15 12 11 13 14 13 15 17 18 16 14 11 6 6 7 7 6 4 3 3 2 2 2 3 3 2 2 2 3 4 5 6 6 6 7 7 8
14 16 18 17 19 19 16 13 11 13 14 13 15 17 18 18 16 12 7 6 9 8 6 4 2 2 1 1 1 2 2 2 2 2 4 4 5 6 6 7 7 7 7
15 17 18 18 20 20 17 13 11 11 12 13 15 16 17 18 18 13 9 9 10 7 5 4 2 2 2 1 1 2 2 2 2 3 4 4 5 5 6 6 7 7 8
14 15 17 18 18 17 14 11 9 10 11 12 14 15 18 18 18 15 10 10 10 6 4 4 3 2 2 2 2 2 3 2 2 2 3 4 4 4 5 5 6 6 7
13 15 18 19 18 16 15 15 15 15 13 12 11 16 19 18 18 15 9 8 8 7 7 7 4 3 2 2 2 2 3 3 3 2 2 3 3 3 4 4 4 5 6
16 18 19 20 20 19 18 17 14 11 9 9 8 12 18 19 18 16 11 8 8 7 7 7 5 4 2 2 3 2 1 2 2 2 2 1 2 2 3 2 3 3 4
16 18 18 21 21 22 19 11 8 6 5 8 11 12 14 18 19 17 15 11 9 9 8 8 8 7 4 2 2 4 3 3 2 2 2 1 2 1 2 2 2 2 2
17 16 18 19 20 20 18 17 18 15 14 15 11 12 12 16 17 17 16 13 10 9 9 9 8 6 6 4 2 1 2 3 3 1 2 2 2 1 2 1 1 1 1
13 13 15 16 17 18 20 21 21 17 13 9 8 12 12 12 14 16 15 13 11 9 10 10 8 7 5 5 5 3 2 2 2 3 3 3 3 2 2 2 2 2 2
9 10 11 14 16 17 20 20 21 19 14 13 12 14 12 9 10 13 13 12 11 10 10 10 10 10 7 6 5 4 4 4 4 4 3 3 3 3 2 2 2 4 3
Wind_Direction
186 184 174 160 154 149 145 141 136 132 129 124 119 114 111 106 100 97 93 91 87 84 82 82 80 81 79 78 75 72 70 67 64 61 59 61 63 62 60 57 54 49 50
160 174 171 162 157 152 147 142 138 135 131 126 122 119 117 113 106 101 99 95 92 88 86 84 83 83 82 80 77 76 73 71 67 63 55 50 58 63 60 57 56 53 52
154 168 170 163 159 154 149 144 141 138 135 131 128 124 120 116 112 107 103 99 95 92 89 88 87 87 84 81 79 79 77 74 70 62 51 41 46 63 61 59 57 55 53
156 165 166 164 159 155 150 146 144 143 140 135 132 129 126 121 116 111 107 103 99 95 92 91 90 90 87 84 83 82 79 76 71 59 46 38 37 62 61 58 57 55 53
156 163 166 163 160 157 153 150 148 146 143 140 137 133 129 124 119 113 110 106 102 99 96 94 93 92 90 87 86 84 80 76 66 55 43 33 30 59 61 58 56 55 53
156 162 167 164 162 159 156 154 152 150 148 145 142 138 133 129 123 117 114 109 106 103 101 97 95 93 92 89 87 85 82 76 65 54 41 29 23 53 57 54 52 51 50
157 161 169 167 165 162 160 158 156 155 153 150 147 143 139 134 127 123 119 115 111 108 104 99 97 95 92 90 89 87 85 79 68 52 36 21 22 51 53 48 43 42 42
157 160 170 171 168 165 164 162 160 159 157 155 152 149 143 138 135 131 127 123 118 112 107 102 100 97 92 89 88 88 85 81 71 51 27 10 23 43 44 39 34 30 30
154 159 171 173 171 170 168 165 164 163 161 159 157 153 149 145 143 139 134 129 123 116 110 106 103 99 94 90 87 85 85 84 74 45 15 359 17 32 34 31 25 21 20
157 164 171 170 168 168 169 168 167 166 165 163 161 156 152 151 150 145 141 137 131 125 119 112 105 99 92 88 82 77 81 76 68 42 8 351 8 21 26 24 20 15 12
174 178 174 168 166 166 167 171 169 169 169 167 163 158 154 153 149 144 146 148 143 135 128 117 106 95 85 75 70 71 72 66 62 31 355 344 4 15 21 20 17 14 15
185 187 182 174 168 166 170 171 170 169 170 167 162 158 155 152 148 148 157 160 153 143 133 116 99 82 72 63 59 63 65 61 50 353 329 336 354 6 14 18 20 21 20
185 186 186 181 173 171 170 168 168 167 165 163 161 159 157 154 152 153 160 164 153 138 115 95 75 69 66 58 50 52 53 46 21 335 329 335 347 358 8 15 20 24 24
183 190 187 184 180 178 173 172 169 167 167 165 166 163 158 155 156 159 163 165 156 147 129 104 89 76 63 53 47 42 35 27 11 351 344 351 359 0 12 15 22 24 25
188 191 190 188 187 183 178 177 177 175 173 171 170 170 168 165 166 168 171 173 175 170 159 145 131 92 67 48 37 36 33 26 23 19 4 13 20 23 25 26 27 28 31
194 194 191 193 191 187 187 185 183 180 176 174 176 177 176 175 174 172 172 177 186 187 180 169 158 132 98 64 39 44 45 36 31 33 32 36 39 42 37 33 33 31 28
196 193 193 195 193 193 193 189 185 183 180 181 182 181 181 181 180 177 174 182 193 189 176 157 139 120 101 80 53 36 34 28 48 57 61 57 52 48 45 40 36 28 25
190 192 195 195 197 198 197 192 189 186 185 186 185 185 185 185 184 179 178 188 191 181 169 151 136 123 108 91 60 20 17 26 45 64 74 71 68 59 52 48 37 29 22
193 192 193 195 198 199 198 193 189 186 189 189 187 187 190 189 186 182 185 189 181 170 167 158 137 142 141 122 93 40 18 23 29 70 76 76 80 75 63 48 39 35 23
196 194 195 197 199 197 194 190 188 189 193 191 191 192 190 191 189 185 186 183 174 164 163 157 144 125 125 129 92 51 24 20 41 60 75 80 81 80 72 58 47 35 23
196 195 196 197 197 191 193 195 197 201 198 197 196 193 191 191 189 186 185 178 175 177 176 164 145 141 125 123 103 41 15 30 46 35 57 75 67 72 70 60 49 36 24
201 200 200 199 196 193 197 199 200 195 194 195 191 193 193 192 190 190 185 183 180 175 169 166 154 142 134 136 137 117 12 345 4 21 25 57 43 48 47 38 38 27 20
206 204 203 201 198 197 194 184 171 158 156 182 195 198 197 194 192 190 189 184 181 177 181 179 171 159 161 152 141 148 159 220 281 327 348 4 351 358 355 357 5 358 358
211 206 204 201 198 195 187 184 184 191 197 199 195 195 191 193 192 191 188 185 183 182 181 182 175 167 154 162 149 110 139 151 158 277 312 321 327 307 306 320 320 318 335
208 202 202 198 196 191 188 190 192 198 199 184 172 180 187 191 192 191 189 186 185 186 183 177 173 173 168 164 163 154 134 97 127 167 252 299 319 298 283 279 263 262 279
197 193 191 191 193 189 190 191 195 196 186 174 178 186 189 188 190 191 188 187 186 185 184 182 179 177 177 168 166 163 161 163 179 175 207 243 269 288 297 283 251 244 251
Height
1504 1507 1511 1515 1518 1520 1522 1524 1526 1528 1529 1530 1532 1533 1534 1535 1536 1537 1538 1538 1539 1539 1540 1540 1541 1541 1542 1542 1542 1542 1542 1542 1542 1542 1542 1542 1542 1542 1541 1541 1542 1542 1542
1502 1506 1510 1514 1517 1520 1522 1524 1526 1528 1529 1531 1532 1533 1534 1535 1536 1537 1538 1539 1539 1540 1540 1540 1541 1542 1542 1542 1542 1542 1542 1542 1542 1542 1542 1542 1542 1542 1542 1542 1542 1542 1542
1501 1505 1509 1513 1517 1520 1522 1524 1526 1528 1529 1531 1532 1533 1534 1535 1537 1538 1539 1539 1539 1540 1540 1541 1541 1542 1542 1543 1543 1543 1543 1543 1543 1543 1543 1543 1543 1543 1543 1542 1542 1542 1542
1501 1504 1508 1512 1516 1519 1522 1524 1526 1528 1529 1531 1532 1533 1535 1536 1537 1538 1539 1540 1540 1540 1541 1541 1542 1542 1543 1543 1543 1543 1543 1543 1543 1544 1544 1544 1544 1544 1544 1543 1543 1543 1542
1501 1504 1507 1512 1515 1518 1521 1524 1526 1528 1529 1531 1532 1534 1535 1536 1537 1538 1539 1540 1540 1541 1542 1542 1543 1543 1543 1544 1544 1544 1544 1544 1544 1545 1545 1545 1545 1545 1545 1544 1544 1543 1543
1500 1504 1507 1511 1515 1518 1521 1523 1526 1528 1529 1531 1533 1534 1535 1537 1538 1539 1540 1540 1541 1542 1542 1543 1543 1544 1544 1545 1545 1545 1545 1545 1546 1546 1546 1546 1546 1546 1546 1545 1545 1545 1544
1500 1504 1507 1511 1514 1518 1520 1523 1525 1527 1529 1531 1533 1534 1536 1537 1538 1539 1540 1541 1542 1543 1543 1544 1544 1545 1545 1546 1546 1546 1546 1546 1547 1547 1546 1546 1546 1547 1547 1546 1546 1546 1545
1500 1503 1507 1511 1514 1517 1520 1522 1525 1527 1529 1531 1533 1534 1536 1537 1538 1539 1540 1541 1542 1543 1544 1545 1545 1546 1546 1546 1547 1547 1547 1547 1547 1547 1547 1547 1547 1548 1547 1547 1546 1546 1545
1501 1504 1507 1510 1514 1517 1519 1522 1524 1526 1529 1531 1532 1534 1536 1537 1538 1540 1541 1542 1543 1544 1544 1545 1546 1546 1547 1547 1547 1548 1548 1548 1548 1548 1548 1548 1548 1548 1548 1547 1546 1546 1545
1501 1503 1506 1509 1513 1516 1518 1521 1523 1526 1528 1530 1532 1534 1535 1537 1538 1540 1541 1542 1543 1544 1545 1545 1546 1547 1547 1547 1548 1548 1548 1549 1549 1548 1548 1548 1548 1548 1548 1547 1546 1545 1545
1499 1502 1505 1508 1511 1514 1517 1520 1522 1525 1527 1529 1531 1533 1535 1536 1538 1540 1541 1542 1543 1544 1545 1546 1546 1547 1547 1548 1548 1549 1549 1549 1549 1549 1548 1548 1548 1548 1548 1547 1546 1545 1545
1495 1499 1502 1506 1509 1512 1515 1518 1521 1523 1526 1528 1530 1532 1534 1536 1538 1539 1541 1542 1543 1544 1545 1546 1547 1547 1548 1548 1548 1549 1549 1549 1549 1549 1548 1548 1548 1548 1547 1547 1546 1545 1544
1492 1496 1499 1503 1507 1510 1513 1516 1519 1521 1524 1526 1529 1531 1533 1535 1537 1538 1540 1541 1543 1544 1545 1546 1546 1547 1548 1548 1549 1549 1549 1549 1549 1548 1548 1548 1547 1547 1547 1546 1545 1544 1544
1489 1493 1497 1500 1504 1508 1511 1514 1517 1519 1522 1524 1527 1529 1532 1534 1536 1538 1539 1541 1542 1544 1545 1546 1547 1547 1548 1548 1548 1548 1548 1548 1548 1548 1547 1547 1547 1546 1546 1545 1545 1544 1543
1487 1490 1494 1497 1501 1504 1508 1511 1514 1517 1520 1523 1525 1528 1530 1532 1535 1537 1538 1540 1542 1543 1544 1545 1546 1547 1547 1548 1548 1548 1548 1548 1547 1547 1547 1546 1546 1545 1545 1544 1544 1543 1542
1483 1487 1490 1494 1498 1501 1504 1508 1511 1514 1517 1520 1523 1526 1528 1531 1533 1535 1537 1539 1540 1542 1543 1545 1546 1546 1547 1547 1547 1547 1547 1547 1547 1546 1546 1545 1545 1544 1544 1543 1543 1542 1541
1480 1483 1487 1490 1494 1498 1501 1504 1508 1511 1514 1517 1520 1523 1526 1529 1531 1534 1536 1538 1539 1541 1542 1544 1545 1545 1546 1546 1546 1546 1546 1546 1545 1545 1544 1544 1544 1543 1543 1542 1542 1541 1540
1476 1480 1483 1487 1490 1494 1497 1501 1504 1508 1511 1514 1518 1521 1523 1526 1529 1531 1534 1536 1538 1540 1541 1542 1543 1544 1545 1545 1545 1545 1545 1545 1544 1544 1543 1543 1543 1542 1542 1541 1540 1540 1539
1472 1475 1479 1482 1486 1489 1493 1497 1501 1504 1507 1511 1514 1517 1520 1523 1526 1529 1531 1534 1536 1538 1539 1541 1542 1543 1544 1544 1544 1544 1543 1543 1543 1543 1543 1542 1542 1541 1541 1540 1539 1538 1537
1467 1471 1474 1477 1481 1485 1489 1493 1497 1500 1503 1506 1510 1513 1517 1520 1523 1526 1529 1531 1533 1535 1537 1539 1540 1541 1542 1542 1542 1542 1542 1542 1541 1541 1541 1541 1541 1540 1540 1539 1538 1537 1536
1461 1464 1468 1471 1475 1479 1483 1486 1490 1493 1496 1500 1504 1509 1513 1516 1519 1522 1525 1528 1530 1533 1535 1536 1538 1539 1540 1541 1541 1541 1540 1540 1540 1540 1540 1540 1539 1539 1538 1537 1536 1535 1534
1453 1457 1460 1464 1468 1472 1475 1479 1483 1487 1491 1495 1500 1504 1508 1512 1515 1518 1521 1524 1527 1530 1532 1533 1535 1537 1538 1539 1539 1539 1539 1539 1538 1538 1538 1538 1538 1537 1537 1536 1535 1533 1532
1445 1449 1453 1456 1460 1464 1468 1473 1478 1483 1487 1491 1494 1497 1502 1506 1510 1514 1517 1521 1523 1526 1528 1530 1532 1534 1535 1536 1537 1538 1537 1537 1537 1537 1536 1536 1536 1535 1535 1534 1533 1531 1530
1438 1442 1445 1449 1452 1456 1461 1465 1469 1473 1476 1480 1485 1490 1496 1501 1505 1509 1513 1516 1519 1522 1524 1527 1529 1531 1532 1533 1534 1535 1536 1535 1535 1535 1535 1534 1534 1533 1532 1531 1530 1529 1528
1430 1434 1438 1442 1445 1449 1453 1457 1462 1466 1471 1476 1481 1486 1491 1495 1500 1504 1508 1512 1515 1518 1520 1523 1525 1527 1529 1530 1531 1531 1532 1532 1532 1532 1532 1532 1531 1531 1530 1529 1528 1526 1525
1423 1426 1430 1434 1438 1442 1446 1451 1455 1460 1464 1469 1474 1479 1485 1490 1494 1499 1503 1506 1510 1513 1516 1519 1521 1523 1525 1526 1527 1528 1529 1529 1529 1529 1529 1528 1528 1527 1526 1525 1524 1523 1522